Location: Unspecified
(0.0000°N, 0.0000°E)
Time: 12:05:22
(UTC+02:00)

Altair - All Passes

Search period start: 28 April 2017 00:00
Search period end: 08 May 2017 00:00
Orbit: 1502 x 1682 km, 47.2° (Epoch: 26 April)

Date Brightness Start Highest point End Pass type
(mag) Time Alt. Az. Time Alt. Az. Time Alt. Az.
28 Apr - 04:04:30 10° NNW 04:13:25 56° NE 04:22:29 10° SE visible
28 Apr - 06:10:18 10° WNW 06:17:57 29° SW 06:25:49 10° S visible
28 Apr - 14:50:49 10° S 14:58:42 25° SE 15:06:27 10° E daylight
28 Apr - 16:53:26 10° SW 17:03:33 72° NW 17:13:28 10° NNE daylight
28 Apr - 19:04:35 10° WNW 19:08:43 13° NW 19:12:49 10° NNW daylight
29 Apr - 03:39:32 10° NNW 03:48:17 50° NE 03:57:10 10° ESE visible
29 Apr - 05:44:49 10° WNW 05:52:47 33° SW 06:00:58 10° SSE visible
29 Apr - 14:26:05 10° S 14:33:26 22° SE 14:40:42 10° E daylight
29 Apr - 16:28:11 10° SW 16:38:23 80° NW 16:48:22 10° NE daylight
29 Apr - 18:38:09 10° W 18:43:26 15° NW 18:48:40 10° NNW daylight
30 Apr - 03:14:35 10° NNW 03:23:09 44° NE 03:31:48 10° ESE night (unlit)
30 Apr - 05:19:22 10° WNW 05:27:37 37° SW 05:36:04 10° SSE visible
30 Apr - 14:01:25 10° S 14:08:10 20° SE 14:14:51 10° E daylight
30 Apr - 16:02:58 10° SW 16:13:12 88° NW 16:23:13 10° NE daylight
30 Apr - 18:11:59 10° W 18:18:09 18° NW 18:24:15 10° N daylight
01 May - 02:49:40 10° NNW 02:58:01 39° NE 03:06:24 10° ESE night (unlit)
01 May - 04:53:59 10° WNW 05:02:27 42° SW 05:11:08 10° SSE visible
01 May - 13:36:52 10° S 13:42:53 17° SE 13:48:51 10° E daylight
01 May - 15:37:47 10° SW 15:48:00 84° SE 15:58:04 10° NE daylight
01 May - 17:46:01 10° W 17:52:54 20° NW 17:59:42 10° N daylight
02 May - 02:24:47 10° NNW 02:32:52 35° NE 02:40:58 10° ESE night (unlit)
02 May - 04:28:39 10° WNW 04:37:18 47° SW 04:46:11 10° SSE visible
02 May - 13:12:29 10° SSE 13:17:35 15° SE 13:22:39 10° ESE daylight
02 May - 15:12:38 10° SW 15:22:50 76° SE 15:32:52 10° NE daylight
02 May - 17:20:10 10° W 17:27:39 23° NW 17:35:04 10° N daylight
03 May - 01:59:56 10° N 02:07:42 31° NE 02:15:27 10° ESE night (unlit)
03 May - 04:03:20 10° NW 04:12:10 53° SW 04:21:11 10° SSE visible
03 May - 12:48:23 10° SSE 12:52:16 13° SE 12:56:09 10° ESE daylight
03 May - 14:47:31 10° SSW 14:57:38 69° SE 15:07:38 10° NE daylight
03 May - 16:54:26 10° WSW 17:02:25 26° NW 17:10:20 10° N daylight
04 May - 01:35:08 10° N 01:42:32 27° NE 01:49:54 10° ESE night (unlit)
04 May - 03:38:04 10° NW 03:47:02 60° SW 03:56:10 10° SSE night (unlit)
04 May - 12:25:03 10° SSE 12:26:56 11° SE 12:28:50 10° SE daylight
04 May - 14:22:26 10° SSW 14:32:27 62° SE 14:42:21 10° NE daylight
04 May - 16:28:46 10° WSW 16:37:11 30° NW 16:45:32 10° N daylight
05 May - 01:10:24 10° N 01:17:22 24° NE 01:24:17 10° E visible
05 May - 03:12:50 10° NW 03:21:54 68° SW 03:31:07 10° SSE night (unlit)
05 May - 05:25:00 10° WSW 05:27:04 11° SW 05:29:11 10° SSW visible
05 May - 13:57:23 10° SSW 14:07:15 55° SE 14:17:03 10° NE daylight
05 May - 16:03:11 10° WSW 16:11:59 34° NW 16:20:42 10° NNE daylight
06 May - 00:45:43 10° N 00:52:10 21° NE 00:58:34 10° E visible
06 May - 02:47:38 10° NW 02:56:47 76° SW 03:06:02 10° SE night (unlit)
06 May - 04:58:05 10° WSW 05:01:48 13° SW 05:05:34 10° SSW night (unlit)
06 May - 13:32:22 10° SSW 13:42:03 50° SE 13:51:41 10° ENE daylight
06 May - 15:37:40 10° WSW 15:46:45 38° NW 15:55:48 10° NNE daylight
07 May - 00:21:08 10° N 00:26:57 18° NE 00:32:44 10° E visible
07 May - 02:22:28 10° NW 02:31:40 84° SW 02:40:55 10° SE night (unlit)
07 May - 04:31:47 10° WSW 04:36:33 15° SW 04:41:23 10° SSW night (unlit)
07 May - 13:07:23 10° SSW 13:16:51 44° SE 13:26:18 10° ENE daylight
07 May - 15:12:11 10° WSW 15:21:33 42° NW 15:30:53 10° NNE daylight
